Hourly Data Report for April 26, 2020

MIRAMICHI RCS
NEW BRUNSWICK
Current Station Operator: ECCC - MSC

47°00'34.000" N
65°27'54.000" W
33.00 m
8100989
71744
ACQ

Download Data

Hourly Data (April 2020)
Hourly Data Report for April 26, 2020
TIME
LST
Temp Definition
°C
Dew Point Definition
°C
Rel Hum Definition
%
Precip. Amount Definition
mm

Wind Dir Definition
10's deg

Wind Spd Definition
km/h
Visibility Definition
km
Stn Press Definition
kPa
Hmdx Definition


Wind Chill Definition


Weather Definition


00:00 -0.4 -8.5 54 LegendMM 26 6   101.52   -2 LegendNANA
01:00 -0.6 -9.7 50 LegendMM 28 6   101.52   -3 LegendNANA
02:00 -1.9 -8.0 63 LegendMM 24 5   101.56   -4 LegendNANA
03:00 -1.3 -9.4 54 LegendMM 27 6   101.58   -4 LegendNANA
04:00 -2.5 -7.9 66 LegendMM 26 6   101.63   -5 LegendNANA
05:00 -2.2 -8.2 64 LegendMM 25 6   101.71   -5 LegendNANA
06:00 -2.1 -7.4 67 LegendMM 26 6   101.80   -4 LegendNANA
07:00 0.3 -7.1 57 LegendMM 27 6   101.85     LegendNANA
08:00 3.3 -7.8 44 LegendMM 25 5   101.87     LegendNANA
09:00 7.6 -10.2 27 LegendMM 17 2   101.84     LegendNANA
10:00 9.1 -13.0 20 LegendMM 27 7   101.85     LegendNANA
11:00 10.4 -12.5 19 LegendMM 26 9   101.81     LegendNANA
12:00 11.5 -11.7 18 LegendMM 23 11   101.77     LegendNANA
13:00 12.4 -11.0 18 LegendMM 26 14   101.71     LegendNANA
14:00 13.4 -10.5 18 LegendMM 28 10   101.67     LegendNANA
15:00 14.5 -9.5 18 LegendMM 25 15   101.64     LegendNANA
16:00 14.1 -10.2 17 LegendMM 28 9   101.62     LegendNANA
17:00 9.8 -5.9 32 LegendMM 5 21   101.67     LegendNANA
18:00 9.0 -7.1 31 LegendMM 5 14   101.72     LegendNANA
19:00 8.1 -8.7 29 LegendMM 8 15   101.77     LegendNANA
20:00 6.1 -8.6 34 LegendMM 6 7   101.82     LegendNANA
21:00 4.3 -4.4 53 LegendMM 4 8   101.87     LegendNANA
22:00 3.4 -4.8 55 LegendMM 3 6   101.90     LegendNANA
23:00 2.5 -4.2 61 LegendMM 4 7   101.96     LegendNANA

Notes on Data Quality.

Legend

  • E = Estimated
  • M = Missing
  • NA = Not Available*
  • [empty] = Indicates an unobserved value
Date modified: